Location: Acton
(51.4942°N, 0.2232°W)
Time: 04:25:29
(UTC+00:00)

SL-08 RB Rocket - Pass Details

Date: 18 September 2020
Orbit: 646 x 685 km, 97.8° (Epoch: 20 October)

Event Time Altitude Azimuth Distance (km) Brightness Sun altitude
Exits shadow 19:32:45 - 169° (S) 2,928 6.7 -13.8°
Reaches altitude 10° 19:34:47 10° 171° (S) 2,102 6.0 -14.1°
Maximum altitude 19:39:22 74° 257° (WSW) 699 3.9 -14.7°
Drops below altitude 10° 19:43:57 10° 343° (NNW) 2,095 6.8 -15.4°
Sets 19:46:11 0° 345° (NNW) 3,006 7.7 -15.7°
